Regional Weather Roundup
Issued by NWS Bismarck, ND

Home | Current Version | Previous Version | Text Only | Print | Product List | Glossary On
Versions: 1 2 3 4 5 6 7 8 9 10 11 12 13 14 15 16 17 18 19 20 21 22 23 24 25 26 27 28 29 30 31 32 33 34 35 36 37 38 39 40 41 42 43 44 45 46 47 48 49 50
000
ASUS43 KBIS 280110
RWRBIS

NWR BROADCAST TEXT
NATIONAL WEATHER SERVICE BISMARCK ND
800 PM CDT SAT MAY 27 2017

NOTE: "FAIR" INDICATES FEW OR NO CLOUDS BELOW 12,000 FEET WITH NO
SIGNIFICANT WEATHER AND/OR OBSTRUCTIONS TO VISIBILITY.


CITY           SKY/WX    TMP DP  RH WIND       PRES   REMARKS
WILLISTON      FAIR      74  33  22 NW18G33   29.85R
MINOT          FAIR      62  44  51 NW8       29.81S
MINOT AFB      FAIR      62  46  57 NW5       29.80S
BISMARCK       FAIR      66  44  45 N7        29.84S
DICKINSON      FAIR      65  36  34 W29G39    29.87R
GARRISON         N/A     63  41  44 N13       29.82S
HETTINGER ARPT FAIR      67  39  35 NW18      29.93S
JAMESTOWN      PTSUNNY   58  45  62 N24G36    29.80R
HAZEN          FAIR      66  43  42 NW13G18   29.85S
LINTON         FAIR      57  55  94 N8G16     29.88R
MANDAN         FAIR      63  45  51 NW9       29.85S
STANLEY        FAIR      64  43  45 NW6       29.84F
TIOGA          FAIR      68  37  32 NW17      29.84S
WATFORD CITY   FAIR      70  37  30 N16G32    29.84S
$$

CITY           SKY/WX    TMP DP  RH WIND       PRES   REMARKS
GRAND FORKS    PTSUNNY   71  48  43 CALM      29.67F
GRAND FORKS AF PTSUNNY   69  41  36 NW7       29.69F
DEVILS LAKE    FAIR      54  48  80 NW10      29.79S
FARGO          FAIR      73  38  27 SW13      29.71F
CAVALIER       LGT RAIN  63  48  59 NW13G20   29.69S
GRAFTON        MOCLDY    61  54  77 CALM      29.72R
GWINNER        PTCLDY    72  39  30 MISG      29.76S
LANGDON        MOCLDY    52  48  87 W23       29.76R
ROLLA          FAIR      57  45  62 N10       29.78S
$$

CITY           SKY/WX    TMP DP  RH WIND       PRES   REMARKS
ABERDEEN       FAIR      69  37  30 N10       29.81R
MOBRIDGE       FAIR      68  40  35 W9        29.82F
BUFFALO          N/A     63  44  50 W12       29.92R
RAPID CITY     PTSUNNY   68  34  28 NW14      30.00R
GLASGOW        PTSUNNY   75  32  20 NW21G28   29.93R
SIDNEY         FAIR      73  36  25 N18G29    29.88R
WOLF POINT     FAIR      76  34  21 NW18G28   29.90R
GLENDIVE       PTSUNNY   73  40  30 W18       29.93F
MILES CITY     FAIR      72  35  25 N20G40    29.98R
BAKER          FAIR      68  36  30 NW22G28   29.97R
$$

CITY           SKY/WX    TMP DP  RH WIND       PRES   REMARKS
BILLINGS       FAIR      71  36  27 W20G26    30.09R
GREAT FALLS    CLOUDY    69  37  30 N7        30.10S
REGINA         MOSUNNY   68  36  30 N18G29    29.84R
ESTEVAN        MOSUNNY   66  37  34 NW26G32   29.82R
$$





USA.gov is the U.S. government's official web portal to all federal, state and local government web resources and services.